Location: Paris
(48.6709°N, 2.3750°E)
Time: 07:01:51
(UTC+02:00)

CUBESAT XI-V - Pass Details

Date: 01 July 2022
Orbit: 668 x 690 km, 98.1° (Epoch: 18 August)

Event Time Altitude Azimuth Distance (km) Brightness Sun altitude
Exits shadow 01:40:35 - 107° (ESE) 3,020 ? -18.1°
Reaches altitude 10° 01:44:10 10° 78° (ENE) 2,109 ? -18.2°
Maximum altitude 01:45:55 12° 55° (NE) 1,969 ? -18.2°
Drops below altitude 10° 01:47:41 10° 32° (NNE) 2,110 ? -18.2°
Sets 01:51:16 0° 3° (N) 3,027 ? -18.2°
